Cheraw, SC

11:17 AM EST on February 25, 2017 (GMT -0500)
Cheraw

Weather History for KCQW - February, 2012

Change the Weather History Date:

Friday, February 24, 2012

  Actual Average (KFLO) Record (KFLO)
Temperature  
Mean Temperature 72 °F -  
Max Temperature 75 °F 62 °F 82 °F (1962)
Min Temperature 68 °F 38 °F 24 °F (1968)
Cooling Degree Days 6    
Growing Degree Days 22 (Base 50)    
Moisture  
Dew Point 61 °F    
Average Humidity 75    
Maximum Humidity 88    
Minimum Humidity 65    
Precipitation  
Precipitation 0.04 in - - ()
Sea Level Pressure  
Sea Level Pressure 29.66 in    
Wind  
Wind Speed 11 mph (SW)    
Max Wind Speed 17 mph    
Max Gust Speed 28 mph    
Visibility 10 miles    
Events Rain    
Averages and records for this station are not official NWS values.
T = Trace of Precipitation, MM = Missing Value Source: NWS Daily Summary

Daily Weather History Graph

Daily Weather History Graph

Search for Another Location

Airport or City:

Trip Planner

Search our weather history database for the weather conditions in past years. The results will help you decide how hot, cold, wet, or windy it might be!

Date:

Astronomy

Feb. 24, 2012 Rise Set
Actual Time 6:55 AM EST 6:10 PM EST
Civil Twilight 6:30 AM EST 6:36 PM EST
Nautical Twilight 6:01 AM EST 7:05 PM EST
Astronomical Twilight 5:31 AM EST 7:34 PM EST
Moon 7:58 AM EST (2/24) 9:02 PM EST (2/24)
Length of Visible Light 12h 05m
Length of Day
11h 15m
Waxing Crescent, 7% of the Moon is Illuminated
Feb 24
Waxing Crescent
Feb 29
First Quarter
Mar 8
Full
Mar 14
Last Quarter
Mar 22
New

Hourly Weather History & Observations

Time (EST) Temp. Dew Point Humidity Pressure Visibility Wind Dir Wind Speed Gust Speed Precip Events Conditions
12:15 AM 68.0 °F 60.8 °F 78% 29.65 in 10.0 mi SSW 10.4 mph - N/A   Scattered Clouds
12:35 AM 69.8 °F 60.8 °F 73% 29.65 in 10.0 mi SW 9.2 mph - N/A   Mostly Cloudy
12:55 AM 69.8 °F 60.8 °F 73% 29.65 in 10.0 mi SW 11.5 mph - N/A   Mostly Cloudy
1:15 AM 69.8 °F 60.8 °F 73% 29.65 in 10.0 mi SSW 12.7 mph - N/A   Mostly Cloudy
1:35 AM 69.8 °F 60.8 °F 73% 29.65 in 10.0 mi SSW 11.5 mph - N/A   Partly Cloudy
1:55 AM 69.8 °F 60.8 °F 73% 29.65 in 10.0 mi SSW 10.4 mph - N/A   Partly Cloudy
2:15 AM 69.8 °F 60.8 °F 73% 29.65 in 10.0 mi SSW 10.4 mph 16.1 mph N/A   Scattered Clouds
2:35 AM 69.8 °F 60.8 °F 73% 29.65 in 10.0 mi SSW 9.2 mph - N/A   Mostly Cloudy
2:55 AM 69.8 °F 60.8 °F 73% 29.64 in 10.0 mi SSW 9.2 mph - N/A   Mostly Cloudy
3:15 AM 69.8 °F 60.8 °F 73% 29.64 in 10.0 mi SSW 9.2 mph - N/A   Mostly Cloudy
3:35 AM 69.8 °F 60.8 °F 73% 29.64 in 10.0 mi SSW 8.1 mph - N/A   Mostly Cloudy
3:55 AM 68.0 °F 60.8 °F 78% 29.64 in 10.0 mi SW 8.1 mph - N/A   Scattered Clouds
4:15 AM 68.0 °F 60.8 °F 78% 29.65 in 10.0 mi SW 9.2 mph - N/A   Scattered Clouds
4:35 AM 69.8 °F 60.8 °F 73% 29.66 in 10.0 mi SW 10.4 mph - N/A   Mostly Cloudy
4:55 AM 69.8 °F 60.8 °F 73% 29.65 in 10.0 mi SSW 8.1 mph 17.3 mph N/A   Overcast
5:15 AM 69.8 °F 60.8 °F 73% 29.65 in 10.0 mi SW 10.4 mph 16.1 mph N/A   Scattered Clouds
5:35 AM 69.8 °F 60.8 °F 73% 29.66 in 10.0 mi SW 11.5 mph 18.4 mph N/A   Clear
5:55 AM 68.0 °F 60.8 °F 78% 29.66 in 10.0 mi SW 11.5 mph 16.1 mph N/A   Clear
6:15 AM 68.0 °F 60.8 °F 78% 29.65 in 10.0 mi SSW 13.8 mph 19.6 mph N/A   Clear
6:35 AM 68.0 °F 60.8 °F 78% 29.65 in 10.0 mi SW 11.5 mph 18.4 mph N/A   Clear
6:55 AM 68.0 °F 60.8 °F 78% 29.66 in 10.0 mi SW 11.5 mph - N/A   Clear
7:15 AM 68.0 °F 60.8 °F 78% 29.68 in 10.0 mi SW 10.4 mph - N/A   Clear
7:35 AM 69.8 °F 62.6 °F 78% 29.68 in 10.0 mi SW 10.4 mph 16.1 mph N/A   Clear
7:55 AM 69.8 °F 62.6 °F 78% 29.68 in 10.0 mi SSW 8.1 mph - N/A   Clear
8:15 AM 69.8 °F 62.6 °F 78% 29.68 in 10.0 mi SSW 10.4 mph 16.1 mph N/A   Clear
8:35 AM 71.6 °F 62.6 °F 73% 29.68 in 10.0 mi SSW 15.0 mph 19.6 mph N/A   Clear
8:55 AM 71.6 °F 62.6 °F 73% 29.69 in 10.0 mi SW 11.5 mph 16.1 mph N/A   Clear
9:55 AM 75.2 °F 62.6 °F 65% 29.70 in 10.0 mi SSW 17.3 mph 23.0 mph N/A   Mostly Cloudy
10:15 AM 73.4 °F 64.4 °F 73% 29.70 in 9.0 mi SW 11.5 mph 27.6 mph N/A   Light Drizzle
10:35 AM 69.8 °F 66.2 °F 88% 29.69 in 4.0 mi SW 10.4 mph 20.7 mph 0.03 in Rain Light Rain
10:55 AM - - N/A% - 4.0 mi North - - 0.04 in   Overcast
11:15 AM - - N/A% - - North - - N/A   Unknown
11:35 AM - - N/A% - - North - - N/A   Unknown
11:55 AM - - N/A% - - North - - N/A   Unknown
12:15 PM - - N/A% - - North - - N/A   Unknown
12:35 PM - - N/A% - - North - - N/A   Unknown
12:55 PM - - N/A% - - North - - N/A   Unknown
1:15 PM - - N/A% - - North - - N/A   Unknown
1:35 PM - - N/A% - - North - - N/A   Unknown
1:55 PM - - N/A% - - North - - N/A   Unknown
2:15 PM - - N/A% - - North - - N/A   Unknown
3:35 PM - - N/A% - - North - - N/A   Unknown
3:55 PM - - N/A% - - North - - N/A   Unknown
4:15 PM - - N/A% - - North - - N/A   Unknown
4:35 PM - - N/A% - - North - - N/A   Unknown
4:55 PM - - N/A% - - North - - N/A   Unknown
5:15 PM - - N/A% - - North - - N/A   Unknown
5:35 PM - - N/A% - - North - - N/A   Unknown
5:55 PM - - N/A% - - North - - N/A   Unknown
6:15 PM - - N/A% - - North - - N/A   Unknown
6:35 PM - - N/A% - - North - - N/A   Unknown
6:55 PM - - N/A% - - North - - N/A   Unknown
7:15 PM - - N/A% - - North - - N/A   Unknown
7:35 PM - - N/A% - - North - - N/A   Unknown
7:55 PM - - N/A% - - North - - N/A   Unknown
8:15 PM - - N/A% - - North - - N/A   Unknown
8:35 PM - - N/A% - - North - - N/A   Unknown
8:55 PM - - N/A% - - North - - N/A   Unknown
9:15 PM - - N/A% - - North - - N/A   Unknown
9:35 PM - - N/A% - - North - - N/A   Unknown
9:55 PM - - N/A% - - North - - N/A   Unknown
10:15 PM - - N/A% - - North - - N/A   Unknown
10:35 PM - - N/A% - - North - - N/A   Unknown
10:55 PM - - N/A% - - North - - N/A   Unknown
11:15 PM - - N/A% - - North - - N/A   Unknown
11:35 PM - - N/A% - - North - - N/A   Unknown
11:55 PM - - N/A% - - North - - N/A   Unknown